Tracking 28902 objects as of 19-May-2024
HD Live streaming from Space Station
objects crossing your sky now

STARLINK-3883

Track STARLINK-3883 now!
10-day predictions
STARLINK-3883 is classified as:


NORAD ID: 52493
Int'l Code: 2022-049AU
Perigee: 545.8 km
Apogee: 547.9 km
Inclination: 53.2 °
Period: 95.4 minutes
Semi major axis: 6917 km
RCS: Unknown
Launch date: May 6, 2022
Source: United States (US)
Launch site: AIR FORCE EASTERN TEST RANGE (AFETR)
Your satellite tracking list
Your tracking list is empty




NASA's NSSDC Master Catalog

Two Line Element Set (TLE):
1 52493U 22049AU  24139.68297081 -.00003069  00000-0 -17480-3 0  9993
2 52493  53.2171 132.0087 0001555  85.0023 275.1146 15.08845017112750
Source of the keplerian elements: AFSPC